ECAMSAT

Last updated on Thu Apr 05 2018 00:15:04 GMT+0000 (Coordinated Universal Time)

1 43019U 98067NG 18094.20041513 .00004316 00000-0 67122-4 0 9991 2 43019 51.6412 26.1884 0004280 254.2879 105.7640 15.56262731107029
UTC large
Height (km)
Speed (km/s)
/
Latitude / Longitude
Inclination (degrees)
Orbital Period (minutes)
Azimuth
Elevation
Range (km)
Doppler Factor

Next 0 passes for location: London (51.5072 / 0.1276)

Sorry there are no passes over London.
ECAMSAT